Location: Burleson City Hall
(32.5426°N, 97.3227°W)
Time: 20:35:27
(UTC+00:00)

BlueWalker 3 - Visible Passes

Search period start: 04 October 2024 00:00
Search period end: 14 October 2024 00:00
Orbit: 473 x 486 km, 53.2° (Epoch: 04 October)

Date Brightness Start Highest point End Pass type
(mag) Time Alt. Az. Time Alt. Az. Time Alt. Az.
04 Oct 4.2 10:09:42 23° E 10:09:42 23° E 10:11:32 10° ENE visible
04 Oct 3.3 11:43:56 13° W 11:46:12 22° NW 11:49:07 10° NNE visible
05 Oct 5.3 09:43:16 10° ENE 09:43:16 10° ENE 09:43:18 10° ENE visible
05 Oct 3.1 11:17:30 23° NW 11:18:03 24° NW 11:21:06 10° NNE visible
06 Oct 3.4 10:50:54 24° N 10:50:54 24° N 10:53:03 10° NNE visible
07 Oct 4.4 10:24:09 15° NNE 10:24:09 15° NNE 10:24:57 10° NNE visible
